Vorticity
5 7 6 5 6 6 7 6 5 5 5 5 6 6 5 5 5 5 6 6 4 4 4 4 5 5 9
7 6 8 9 6 7 5 6 5 5 6 5 6 5 6 5 6 5 5 6 7 4 4 2 6 9 6
7 8 6 7 8 6 8 6 6 5 6 6 6 6 6 6 5 6 6 5 5 1 1 6 5 8 10
8 8 9 9 7 6 7 9 9 7 6 6 7 8 8 8 8 8 6 4 2 4 7 9 10 9 10
10 10 8 9 11 13 10 8 8 7 7 6 6 6 6 6 6 5 3 4 4 6 8 9 9 10 8
11 12 13 12 8 8 7 6 7 6 5 6 7 5 -2 -1 1 4 6 6 7 9 9 9 10 9 8
-5 -3 1 4 8 10 7 4 7 1 -3 -6 -2 6 10 9 9 9 10 12 11 9 9 9 9 9 9
4 6 8 10 3 1 -1 2 5 5 11 11 7 8 11 9 8 10 10 11 11 11 10 10 10 10 9
9 11 9 8 8 8 7 6 7 7 8 7 8 10 9 10 12 13 12 11 10 11 11 11 11 11 10
10 10 10 7 8 10 9 7 9 9 8 9 11 12 12 10 11 12 12 12 12 13 13 13 12 11 12
14 13 12 12 11 12 13 13 13 12 13 13 11 10 10 12 12 12 12 12 12 12 12 11 11 11 11
12 9 10 10 11 11 10 11 11 10 12 11 12 13 14 13 12 12 13 15 15 14 13 11 9 9 9
10 12 12 13 14 15 15 15 13 12 13 14 14 14 13 14 12 12 11 10 11 10 11 10 9 9 9
9 10 10 11 10 10 11 13 12 12 10 11 11 9 9 9 11 12 12 10 14 14 15 12 11 12 13
12 10 10 10 10 11 10 11 10 10 10 11 12 13 12 11 9 8 9 9 5 7 4 12 14 15 14
12 11 11 10 9 10 10 10 11 11 10 10 12 12 10 9 13 11 8 7 8 2 10 10 11 8 8
16 15 16 16 16 16 18 18 15 6 4 9 14 9 -1 -2 5 -4 -3 7 23 18 12 7 6 5 6
Height
3082 3087 3091 3093 3097 3101 3103 3106 3108 3110 3113 3115 3117 3118 3120 3121 3123 3124 3126 3128 3129 3129 3129 3130 3131 3131 3133
3071 3075 3080 3084 3086 3089 3092 3094 3097 3100 3103 3105 3108 3108 3109 3110 3112 3114 3115 3117 3118 3119 3119 3120 3120 3120 3121
3059 3064 3068 3071 3074 3077 3081 3083 3086 3088 3092 3093 3095 3097 3098 3100 3101 3103 3104 3104 3107 3107 3107 3108 3108 3109 3109
3044 3050 3055 3059 3062 3064 3068 3072 3075 3077 3079 3081 3083 3085 3086 3088 3089 3091 3092 3093 3093 3095 3095 3096 3096 3096 3097
3033 3039 3043 3045 3051 3055 3057 3058 3062 3065 3067 3069 3071 3074 3076 3076 3078 3079 3080 3080 3080 3081 3081 3082 3083 3083 3083
3023 3028 3033 3036 3039 3043 3045 3046 3051 3055 3057 3060 3059 3062 3064 3065 3066 3066 3067 3067 3067 3067 3067 3069 3070 3069 3070
3013 3019 3021 3025 3028 3031 3033 3036 3038 3042 3042 3044 3048 3049 3051 3051 3051 3051 3050 3051 3052 3052 3053 3054 3055 3055 3055
3001 3004 3007 3009 3013 3017 3019 3020 3022 3026 3028 3027 3032 3032 3035 3035 3035 3035 3036 3036 3036 3036 3037 3038 3038 3039 3039
2987 2991 2994 2997 2999 3001 3002 3005 3006 3010 3014 3011 3015 3017 3018 3017 3019 3020 3021 3021 3021 3021 3022 3022 3022 3022 3021
2973 2975 2978 2981 2985 2985 2987 2988 2991 2993 2998 3000 3001 3000 2999 3001 3005 3007 3006 3007 3006 3007 3007 3006 3006 3005 3005
2957 2960 2963 2965 2967 2971 2972 2974 2976 2977 2982 2982 2985 2986 2983 2984 2987 2989 2991 2993 2992 2992 2992 2991 2991 2991 2989
2942 2946 2948 2949 2953 2957 2959 2958 2959 2962 2966 2968 2966 2970 2971 2970 2967 2971 2973 2976 2976 2977 2976 2977 2976 2976 2976
2926 2929 2932 2936 2938 2940 2943 2944 2946 2946 2949 2952 2953 2953 2954 2953 2953 2954 2953 2957 2958 2959 2960 2960 2960 2959 2957
2914 2915 2917 2920 2923 2926 2928 2932 2934 2936 2939 2940 2939 2939 2938 2939 2940 2939 2942 2940 2941 2941 2944 2943 2942 2941 2940
2900 2903 2904 2906 2908 2911 2914 2916 2919 2921 2924 2925 2925 2925 2925 2925 2924 2925 2927 2927 2928 2928 2927 2925 2924 2924 2924
2887 2889 2891 2894 2896 2899 2901 2902 2904 2906 2908 2911 2911 2911 2911 2912 2913 2912 2912 2913 2913 2913 2912 2910 2908 2908 2909
2873 2876 2878 2881 2884 2885 2888 2890 2891 2894 2895 2896 2897 2898 2898 2896 2902 2904 2899 2899 2899 2897 2897 2896 2895 2895 2894